CW0213 Ferndale WA US current weather conditions

sailwx.info

Wind from 066 at 5 knots gusting 10

Air temperature 5.6° C
Dewpoint 4.5° C

Last reported at 2019-Dec-11 20:47 UTC.
Time now 2019-Dec-11 21:36 UTC

Location: N 48°52' W 122°37'.
View on Google Maps.

See reports from other nearby stations

  
Tides and Currents Weather Stations Pressure Air Temp Water Temp Dewpoint Dewpoint Depression Visibility Wind Speed Wind Dir Waves Ship Positions
date/time (UTC)wind fromknots sea level pressurealtimeterstation pressurevisibilityair tempwater tempwave heightnotes
2019-Dec-11 20:47 066 5 gusting 10 5.6
2019-Dec-11 20:32 060 4 gusting 11 5.0
2019-Dec-11 20:17 029 3 gusting 7 5.0
2019-Dec-11 20:01 030 4 gusting 8 5.0
2019-Dec-11 19:45 014 4 gusting 6 5.0
2019-Dec-11 19:32 058 5 gusting 9 5.0
2019-Dec-11 19:15 040 4 gusting 8 5.0
2019-Dec-11 19:00 061 4 gusting 10 5.0
2019-Dec-11 18:45 023 3 gusting 6 4.4
2019-Dec-11 18:33 028 1 gusting 5 4.4
2019-Dec-11 18:17 012 2 gusting 8 4.4
2019-Dec-11 18:03 042 3 gusting 7 3.9
2019-Dec-11 17:46 053 3 gusting 8 3.9
2019-Dec-11 17:33 061 4 gusting 9 3.9
2019-Dec-11 17:17 057 2 gusting 6 3.9
2019-Dec-11 17:01 051 3 gusting 7 3.9
2019-Dec-11 16:45 011 2 gusting 5 3.9
2019-Dec-11 16:33 024 2 gusting 6 3.9
2019-Dec-11 16:16 035 2 gusting 6 3.3
2019-Dec-11 16:02 019 2 gusting 5 3.3
2019-Dec-11 15:45 035 1 gusting 4 3.3
2019-Dec-11 15:31 042 1 gusting 4 3.9
2019-Dec-11 15:01 033 1 gusting 3 3.3
2019-Dec-11 14:45 031 0 gusting 2 3.3
2019-Dec-11 14:30 033 1 gusting 4 3.3
2019-Dec-11 14:15 027 1 gusting 4 3.9
2019-Dec-11 14:01 038 0 gusting 3 3.3
2019-Dec-11 13:47 022 1 gusting 4 3.3
2019-Dec-11 13:30 024 0 gusting 3 3.3
2019-Dec-11 13:16 034 0 gusting 4 3.3
2019-Dec-11 13:00 021 1 gusting 3 3.3
2019-Dec-11 12:46 026 1 gusting 4 3.3
2019-Dec-11 12:30 019 1 gusting 4 3.3
2019-Dec-11 12:15 025 1 gusting 5 3.3
2019-Dec-11 12:00 029 0 gusting 4 3.3
2019-Dec-11 11:45 051 0 gusting 3 3.3
2019-Dec-11 11:30 040 0 gusting 3 3.3
2019-Dec-11 11:15 031 2 gusting 5 3.3
2019-Dec-11 11:00 021 1 gusting 4 3.3
2019-Dec-11 10:45 034 1 gusting 4 3.3
2019-Dec-11 10:30 032 1 gusting 4 3.3
2019-Dec-11 10:15 025 2 gusting 4 3.3
2019-Dec-11 10:00 030 1 gusting 5 3.3
2019-Dec-11 09:45 063 3 gusting 6 3.3
2019-Dec-11 09:32 056 2 gusting 4 3.3
2019-Dec-11 09:17 024 0 gusting 2 3.3
2019-Dec-11 09:02 026 1 gusting 2 3.3
2019-Dec-11 08:47 024 0 gusting 2 3.3
2019-Dec-11 08:32 029 0 gusting 2 3.3
2019-Dec-11 08:17 023 0 gusting 1 3.3
2019-Dec-11 08:01 025 1 gusting 3 3.3
2019-Dec-11 07:48 024 0 gusting 3 2.8
2019-Dec-11 07:31 036 1 gusting 3 2.8
2019-Dec-11 07:16 043 1 gusting 5 2.8
2019-Dec-11 07:01 027 1 gusting 4 2.8
2019-Dec-11 06:47 024 1 gusting 4 2.8
2019-Dec-11 06:33 017 1 gusting 6 2.8
2019-Dec-11 06:16 038 1 gusting 5 2.8
2019-Dec-11 06:02 053 2 gusting 5 2.8
2019-Dec-11 05:46 047 2 gusting 5 2.8
2019-Dec-11 05:31 019 1 gusting 4 2.8
2019-Dec-11 05:16 035 0 gusting 4 2.8
2019-Dec-11 05:02 030 1 gusting 4 2.8
2019-Dec-11 04:47 036 1 gusting 3 2.8
2019-Dec-11 04:31 048 1 gusting 4 2.8
2019-Dec-11 04:15 032 0 gusting 3 2.8
2019-Dec-11 04:01 032 1 gusting 4 2.8
2019-Dec-11 03:45 026 1 gusting 5 2.8
2019-Dec-11 03:31 030 1 gusting 5 2.8
2019-Dec-11 03:16 050 2 gusting 5 2.8
2019-Dec-11 03:00 032 1 gusting 4 2.8
2019-Dec-11 02:46 036 1 gusting 3 2.8
2019-Dec-11 02:31 054 1 gusting 2 2.8
2019-Dec-11 02:16 040 0 gusting 3 2.8
2019-Dec-11 02:01 063 1 gusting 3 2.8
2019-Dec-11 01:45 040 1 gusting 3 2.8
2019-Dec-11 01:30 032 0 gusting 4 2.8
2019-Dec-11 01:15 064 2 gusting 5 2.2
2019-Dec-11 01:01 053 1 gusting 3 2.8
2019-Dec-11 00:45 024 1 gusting 4 2.8
2019-Dec-11 00:30 040 0 gusting 4 2.8
2019-Dec-11 00:15 032 0 gusting 3 2.8
2019-Dec-11 00:00 028 1 gusting 3 2.8
2019-Dec-10 23:45 022 0 gusting 4 2.8
2019-Dec-10 23:30 038 1 gusting 3 2.8
2019-Dec-10 23:17 040 1 gusting 3 2.8
2019-Dec-10 23:02 048 1 gusting 4 2.8
2019-Dec-10 22:46 058 1 gusting 4 2.8
2019-Dec-10 22:31 036 0 gusting 2 2.8
2019-Dec-10 22:17 028 0 gusting 2 2.2
2019-Dec-10 22:02 031 0 gusting 2 2.2
2019-Dec-10 21:46 034 1 gusting 3 2.2
2019-Dec-10 21:31 041 2.2
2019-Dec-10 21:16 046 1 gusting 3 2.2
2019-Dec-10 21:01 040 2 gusting 4 2.2
2019-Dec-10 20:47 055 2 gusting 4 2.2
2019-Dec-10 20:30 069 1 gusting 7 2.2
2019-Dec-10 20:01 079 3 gusting 7 2.2
2019-Dec-10 19:16 076 3 gusting 6 2.2
2019-Dec-10 19:00 040 1 gusting 4 2.2
2019-Dec-10 18:46 053 2.2
2019-Dec-10 18:31 045 1 gusting 3 2.2
2019-Dec-10 18:15 038 0 gusting 4 2.2
2019-Dec-10 18:02 024 1 gusting 3 2.2
2019-Dec-10 17:46 024 1.7
2019-Dec-10 17:31 027 1 gusting 3 1.7
2019-Dec-10 17:01 026 0 gusting 3 1.7
2019-Dec-10 16:47 035 1 gusting 3 1.7
2019-Dec-10 16:31 056 2 gusting 5 1.7
2019-Dec-10 16:15 019 0 gusting 2 1.7
2019-Dec-10 16:02 028 1 gusting 3 2.2
2019-Dec-10 15:45 030 0 gusting 3 2.8
2019-Dec-10 15:31 148 0 gusting 2 2.8
2019-Dec-10 15:15 176 2.2
2019-Dec-10 14:45 042 1 gusting 3 2.2
2019-Dec-10 14:30 076 0 gusting 3 2.8
2019-Dec-10 14:15 228 0 gusting 2 2.8
2019-Dec-10 13:45 240 2.8
2019-Dec-10 13:31 238 1 gusting 3 2.8
2019-Dec-10 13:15 242 0 gusting 1 2.8
2019-Dec-10 13:00 242 2.2
2019-Dec-10 12:45 242 2.2
2019-Dec-10 12:30 242 0 gusting 2 2.2
2019-Dec-10 12:03 263 2.2
2019-Dec-10 11:48 257 1 gusting 2 2.2
2019-Dec-10 11:32 254 2.2
2019-Dec-10 11:16 254 2.2
2019-Dec-10 11:01 257 0 gusting 1 1.7
2019-Dec-10 10:48 257 0 gusting 2 1.7
2019-Dec-10 10:32 253 3 gusting 6 1.1
2019-Dec-10 10:16 265 0 gusting 3 1.1
2019-Dec-10 10:01 263 0 gusting 1 1.1
2019-Dec-10 09:47 263 1.1
2019-Dec-10 09:31 286 0 gusting 2 1.1
2019-Dec-10 09:17 005 1.1
2019-Dec-10 09:02 039 1.1
2019-Dec-10 08:46 059 1 gusting 4 1.7
2019-Dec-10 08:31 050 3 gusting 6 1.7
2019-Dec-10 08:16 028 2 gusting 5 1.7
2019-Dec-10 08:01 059 2 gusting 6 1.1
2019-Dec-10 07:45 040 1 gusting 4 1.1
2019-Dec-10 07:30 032 1 gusting 4 1.1
2019-Dec-10 07:15 067 2 gusting 5 1.7
2019-Dec-10 07:01 050 1 gusting 5 1.7
2019-Dec-10 06:46 020 2 gusting 5 2.2
2019-Dec-10 06:31 046 2 gusting 6 2.2
2019-Dec-10 06:15 054 3 gusting 7 2.2
2019-Dec-10 06:00 055 2 gusting 6 2.8
2019-Dec-10 05:45 019 3 gusting 6 2.8
2019-Dec-10 05:30 064 3 gusting 8 2.8
2019-Dec-10 05:16 021 2 gusting 6 3.3
2019-Dec-10 05:01 055 1 gusting 6 3.3
2019-Dec-10 04:45 033 2 gusting 4 3.3
2019-Dec-10 03:45 042 2 gusting 6 3.3
2019-Dec-10 03:30 051 2 gusting 5 3.3
2019-Dec-10 03:15 042 2 gusting 7 3.3
2019-Dec-10 03:00 016 1 gusting 5 3.3
2019-Dec-10 02:45 022 2 gusting 4 3.3
2019-Dec-10 02:30 044 1 gusting 4 3.3
2019-Dec-10 02:15 017 0 gusting 3 3.9
2019-Dec-10 02:01 022 0 gusting 2 3.9
2019-Dec-10 01:45 034 3.9
2019-Dec-10 01:30 034 3.9
2019-Dec-10 01:15 034 4.4
2019-Dec-10 01:00 034 4.4
2019-Dec-10 00:45 036 5.0
2019-Dec-10 00:30 024 0 gusting 1 5.0
2019-Dec-10 00:15 024 5.6
2019-Dec-10 00:00 024 0 gusting 2 5.6
2019-Dec-09 23:45 024 0 gusting 1 5.6
2019-Dec-09 23:30 024 0 gusting 1 6.1
2019-Dec-09 23:15 024 0 gusting 3 6.1
2019-Dec-09 23:00 024 0 gusting 3 6.1
2019-Dec-09 22:45 022 1 gusting 3 6.1
2019-Dec-09 22:30 036 0 gusting 3 6.7
2019-Dec-09 22:16 045 1 gusting 5 6.1
2019-Dec-09 22:01 041 1 gusting 6 6.1
2019-Dec-09 21:47 076 5 gusting 8 6.1
2019-Dec-09 21:32 053 4 gusting 10 6.1
2019-Dec-09 21:16 083 4 gusting 7 6.1
2019-Dec-09 21:01 023 2 gusting 5 6.1